N432CA PHUP-HI23

Flight info

Callsign N432CA
Flight time 0h 49m
Altitude 5500
Route VFR
Aircraft C172/L-SGO/C

Departure

Time 2026-04-18 22:03
Airport Upolu Airport (PHUP)

Arrival

Time 2026-04-18 22:53
Airport Mountain View Airstrip (HI23)
Time Latitude Longitude Altitude Speed Heading
2026-04-18 21:50 20.26514 -155.85763 85 ft 0 kts 112°
2026-04-18 21:59 20.26516 -155.85757 85 ft 4 kts 33°
2026-04-18 22:00 20.26523 -155.85754 85 ft 0 kts 10°
2026-04-18 22:00 20.26557 -155.85739 86 ft 12 kts 36°
2026-04-18 22:00 20.26598 -155.85638 87 ft 16 kts 75°
2026-04-18 22:00 20.26619 -155.85526 85 ft 15 kts 95°
2026-04-18 22:01 20.26620 -155.85482 86 ft 4 kts 349°
2026-04-18 22:01 20.26629 -155.85509 85 ft 0 kts 256°
2026-04-18 22:02 20.26625 -155.85522 87 ft 14 kts 251°
2026-04-18 22:02 20.26561 -155.85812 86 ft 64 kts 257°
2026-04-18 22:03 20.26446 -155.86354 203 ft 82 kts 256°
2026-04-18 22:03 20.26312 -155.86954 428 ft 84 kts 253°
2026-04-18 22:03 20.26136 -155.87554 651 ft 87 kts 246°
2026-04-18 22:03 20.25683 -155.87797 945 ft 79 kts 161°
2026-04-18 22:04 20.25182 -155.87496 1099 ft 86 kts 142°
2026-04-18 22:04 20.24801 -155.87000 1308 ft 88 kts 101°
2026-04-18 22:04 20.25022 -155.86351 1352 ft 106 kts 63°
2026-04-18 22:04 20.25247 -155.85582 1436 ft 113 kts 90°
2026-04-18 22:05 20.24927 -155.84854 1577 ft 113 kts 141°
2026-04-18 22:05 20.24176 -155.84626 1684 ft 112 kts 178°
2026-04-18 22:05 20.23416 -155.84596 1861 ft 111 kts 181°
2026-04-18 22:05 20.22630 -155.84656 1969 ft 115 kts 189°
2026-04-18 22:06 20.21835 -155.84811 2012 ft 116 kts 188°
2026-04-18 22:06 20.21049 -155.84852 2069 ft 113 kts 179°
2026-04-18 22:06 20.20259 -155.84773 2112 ft 110 kts 170°
2026-04-18 22:06 20.19742 -155.84311 2217 ft 106 kts 96°
2026-04-18 22:07 20.19885 -155.83513 2170 ft 113 kts 75°
2026-04-18 22:07 20.20113 -155.82707 2182 ft 112 kts 72°
2026-04-18 22:07 20.20364 -155.81914 2198 ft 113 kts 69°
2026-04-18 22:07 20.20680 -155.81158 2246 ft 111 kts 64°
2026-04-18 22:08 20.21027 -155.80427 2293 ft 111 kts 65°
2026-04-18 22:08 20.21349 -155.79677 2323 ft 111 kts 64°
2026-04-18 22:08 20.21727 -155.78944 2341 ft 113 kts 58°
2026-04-18 22:08 20.22014 -155.78157 2329 ft 116 kts 80°
2026-04-18 22:09 20.22044 -155.77309 2358 ft 113 kts 95°
2026-04-18 22:09 20.21937 -155.76483 2356 ft 116 kts 101°
2026-04-18 22:09 20.21751 -155.75633 2507 ft 111 kts 112°
2026-04-18 22:09 20.21492 -155.74875 2665 ft 108 kts 113°
2026-04-18 22:10 20.21148 -155.74175 2718 ft 108 kts 124°
2026-04-18 22:10 20.20692 -155.73544 2891 ft 109 kts 124°
2026-04-18 22:10 20.20314 -155.72846 3054 ft 109 kts 112°
2026-04-18 22:10 20.20003 -155.72124 3076 ft 106 kts 114°
2026-04-18 22:11 20.19717 -155.71408 3116 ft 104 kts 108°
2026-04-18 22:11 20.19562 -155.70655 3117 ft 105 kts 97°
2026-04-18 22:11 20.19419 -155.69892 3122 ft 106 kts 104°
2026-04-18 22:11 20.19159 -155.69156 3126 ft 106 kts 115°
2026-04-18 22:12 20.18329 -155.67798 3033 ft 114 kts 125°
2026-04-18 22:12 20.17852 -155.67104 2888 ft 120 kts 124°
2026-04-18 22:12 20.17399 -155.66365 2514 ft 118 kts 124°
2026-04-18 22:13 20.16943 -155.65635 2069 ft 119 kts 124°
2026-04-18 22:13 20.16474 -155.64965 1881 ft 106 kts 131°
2026-04-18 22:13 20.15973 -155.64394 1742 ft 106 kts 138°
2026-04-18 22:13 20.15361 -155.64032 1754 ft 100 kts 168°
2026-04-18 22:14 20.14648 -155.63997 1768 ft 107 kts 180°
2026-04-18 22:14 20.13874 -155.63968 1862 ft 113 kts 177°
2026-04-18 22:14 20.13099 -155.63924 2102 ft 110 kts 175°
2026-04-18 22:14 20.12355 -155.63875 2240 ft 106 kts 178°
2026-04-18 22:15 20.11615 -155.63918 2420 ft 106 kts 185°
2026-04-18 22:15 20.10873 -155.63997 2458 ft 109 kts 180°
2026-04-18 22:15 20.10115 -155.64048 2543 ft 110 kts 186°
2026-04-18 22:15 20.09351 -155.64172 2607 ft 113 kts 186°
2026-04-18 22:16 20.08562 -155.64246 2623 ft 113 kts 172°
2026-04-18 22:16 20.07903 -155.63850 2696 ft 110 kts 129°
2026-04-18 22:16 20.07675 -155.63053 2614 ft 121 kts 90°
2026-04-18 22:16 20.07944 -155.62188 2412 ft 130 kts 48°
2026-04-18 22:17 20.08733 -155.61648 2154 ft 136 kts 30°
2026-04-18 22:17 20.09529 -155.61133 2065 ft 127 kts 33°
2026-04-18 22:17 20.10240 -155.60645 2089 ft 119 kts 33°
2026-04-18 22:17 20.10924 -155.60143 2060 ft 120 kts 38°
2026-04-18 22:18 20.11617 -155.59627 1981 ft 122 kts 36°
2026-04-18 22:18 20.12107 -155.58939 1967 ft 119 kts 73°
2026-04-18 22:18 20.12179 -155.58343 1807 ft 126 kts 90°
2026-04-18 22:18 20.12144 -155.57444 1759 ft 121 kts 94°
2026-04-18 22:19 20.12122 -155.56556 1749 ft 120 kts 93°
2026-04-18 22:19 20.12042 -155.55680 1743 ft 118 kts 99°
2026-04-18 22:19 20.11842 -155.54837 1739 ft 115 kts 108°
2026-04-18 22:19 20.11564 -155.54065 1786 ft 111 kts 113°
2026-04-18 22:20 20.11246 -155.53289 1691 ft 119 kts 114°
2026-04-18 22:20 20.10912 -155.52470 1648 ft 120 kts 113°
2026-04-18 22:20 20.10582 -155.51661 1642 ft 119 kts 113°
2026-04-18 22:20 20.10264 -155.50861 1656 ft 117 kts 112°
2026-04-18 22:21 20.09984 -155.50032 1619 ft 121 kts 109°
2026-04-18 22:21 20.09689 -155.49204 1661 ft 118 kts 112°
2026-04-18 22:21 20.09391 -155.48391 1648 ft 118 kts 110°
2026-04-18 22:21 20.09136 -155.47546 1635 ft 118 kts 105°
2026-04-18 22:22 20.08896 -155.46724 1664 ft 115 kts 110°
2026-04-18 22:22 20.08592 -155.45917 1637 ft 119 kts 114°
2026-04-18 22:22 20.08242 -155.45129 1627 ft 117 kts 117°
2026-04-18 22:22 20.07872 -155.44354 1592 ft 118 kts 117°
2026-04-18 22:23 20.07490 -155.43591 1599 ft 118 kts 119°
2026-04-18 22:23 20.07092 -155.42832 1624 ft 116 kts 120°
2026-04-18 22:23 20.06701 -155.42077 1616 ft 117 kts 119°
2026-04-18 22:23 20.06341 -155.41311 1596 ft 118 kts 113°
2026-04-18 22:24 20.06061 -155.40496 1609 ft 115 kts 110°
2026-04-18 22:24 20.05784 -155.39694 1580 ft 119 kts 109°
2026-04-18 22:24 20.05524 -155.38862 1626 ft 116 kts 107°
2026-04-18 22:24 20.05282 -155.38042 1636 ft 117 kts 108°
2026-04-18 22:25 20.04991 -155.37236 1646 ft 117 kts 112°
2026-04-18 22:25 20.04668 -155.36451 1695 ft 117 kts 116°
2026-04-18 22:25 20.04276 -155.35686 1744 ft 116 kts 120°
2026-04-18 22:25 20.03848 -155.34964 1814 ft 115 kts 123°
2026-04-18 22:26 20.03390 -155.34259 1829 ft 117 kts 127°
2026-04-18 22:26 20.02885 -155.33581 1869 ft 117 kts 129°
2026-04-18 22:26 20.02363 -155.32915 1907 ft 117 kts 130°
2026-04-18 22:26 20.01859 -155.32259 1944 ft 116 kts 128°
2026-04-18 22:27 20.01350 -155.31583 1959 ft 118 kts 129°
2026-04-18 22:27 20.00833 -155.30901 1992 ft 117 kts 128°
2026-04-18 22:27 20.00338 -155.30212 2009 ft 117 kts 127°
2026-04-18 22:27 19.99877 -155.29494 2048 ft 118 kts 121°
2026-04-18 22:28 19.99491 -155.28732 2091 ft 117 kts 116°
2026-04-18 22:28 19.99144 -155.27939 2089 ft 120 kts 114°
2026-04-18 22:28 19.98801 -155.27119 2070 ft 122 kts 114°
2026-04-18 22:28 19.98441 -155.26319 2069 ft 122 kts 116°
2026-04-18 22:29 19.98053 -155.25514 2120 ft 119 kts 116°
2026-04-18 22:29 19.97690 -155.24716 2119 ft 123 kts 114°
2026-04-18 22:29 19.97322 -155.23901 2129 ft 121 kts 116°
2026-04-18 22:29 19.96922 -155.23093 2079 ft 125 kts 118°
2026-04-18 22:30 19.96440 -155.22340 2119 ft 121 kts 127°
2026-04-18 22:30 19.95944 -155.21589 2004 ft 129 kts 123°
2026-04-18 22:30 19.95456 -155.20804 1919 ft 129 kts 123°
2026-04-18 22:30 19.94934 -155.20041 1858 ft 129 kts 128°
2026-04-18 22:31 19.94313 -155.19340 1774 ft 128 kts 135°
2026-04-18 22:31 19.93678 -155.18688 1787 ft 122 kts 136°
2026-04-18 22:31 19.93045 -155.18076 1681 ft 128 kts 137°
2026-04-18 22:31 19.92405 -155.17438 1672 ft 122 kts 134°
2026-04-18 22:32 19.91844 -155.16803 1723 ft 118 kts 131°
2026-04-18 22:32 19.91280 -155.16144 1716 ft 118 kts 131°
2026-04-18 22:32 19.90726 -155.15511 1717 ft 119 kts 132°
2026-04-18 22:32 19.90159 -155.14871 1713 ft 119 kts 131°
2026-04-18 22:33 19.89600 -155.14221 1716 ft 118 kts 131°
2026-04-18 22:33 19.88997 -155.13622 1674 ft 121 kts 142°
2026-04-18 22:33 19.88240 -155.13283 1754 ft 116 kts 171°
2026-04-18 22:33 19.87419 -155.13352 1761 ft 124 kts 195°
2026-04-18 22:34 19.86625 -155.13671 1909 ft 119 kts 202°
2026-04-18 22:34 19.85857 -155.13997 2033 ft 119 kts 200°
2026-04-18 22:34 19.85063 -155.14288 2151 ft 121 kts 196°
2026-04-18 22:34 19.84259 -155.14506 2308 ft 118 kts 190°
2026-04-18 22:35 19.83435 -155.14597 2398 ft 121 kts 178°
2026-04-18 22:35 19.82586 -155.14500 2517 ft 120 kts 174°
2026-04-18 22:35 19.81746 -155.14553 2586 ft 124 kts 190°
2026-04-18 22:35 19.80929 -155.14780 2710 ft 120 kts 196°
2026-04-18 22:36 19.80132 -155.15038 2779 ft 121 kts 196°
2026-04-18 22:36 19.79303 -155.15289 2767 ft 127 kts 197°
2026-04-18 22:36 19.78465 -155.15587 2800 ft 126 kts 199°
2026-04-18 22:36 19.77636 -155.15906 2821 ft 127 kts 200°
2026-04-18 22:37 19.76805 -155.16215 2831 ft 126 kts 198°
2026-04-18 22:37 19.75999 -155.16487 2871 ft 118 kts 197°
2026-04-18 22:37 19.75221 -155.16757 2846 ft 118 kts 199°
2026-04-18 22:37 19.74441 -155.17050 2815 ft 119 kts 199°
2026-04-18 22:38 19.73655 -155.17317 2810 ft 118 kts 195°
2026-04-18 22:38 19.72863 -155.17511 2802 ft 117 kts 191°
2026-04-18 22:38 19.72062 -155.17692 2797 ft 116 kts 193°
2026-04-18 22:38 19.71261 -155.17885 2741 ft 120 kts 191°
2026-04-18 22:39 19.70452 -155.18048 2730 ft 118 kts 186°
2026-04-18 22:39 19.69627 -155.17950 2672 ft 120 kts 164°
2026-04-18 22:39 19.68854 -155.17625 2670 ft 118 kts 157°
2026-04-18 22:39 19.68100 -155.17293 2628 ft 119 kts 158°
2026-04-18 22:40 19.67337 -155.16963 2589 ft 120 kts 158°
2026-04-18 22:40 19.66544 -155.16651 2518 ft 122 kts 160°
2026-04-18 22:40 19.65746 -155.16357 2478 ft 121 kts 161°
2026-04-18 22:40 19.64944 -155.16091 2459 ft 119 kts 163°
2026-04-18 22:41 19.64173 -155.15808 2430 ft 119 kts 158°
2026-04-18 22:41 19.63427 -155.15447 2454 ft 116 kts 152°
2026-04-18 22:41 19.62714 -155.15037 2406 ft 120 kts 151°
2026-04-18 22:41 19.61999 -155.14594 2419 ft 116 kts 147°
2026-04-18 22:42 19.61310 -155.14170 2428 ft 114 kts 161°
2026-04-18 22:42 19.60577 -155.13918 2493 ft 111 kts 160°
2026-04-18 22:42 19.59834 -155.13635 2464 ft 116 kts 160°
2026-04-18 22:42 19.59089 -155.13310 2476 ft 114 kts 156°
2026-04-18 22:43 19.58375 -155.12972 2435 ft 110 kts 155°
2026-04-18 22:43 19.57718 -155.12659 2399 ft 98 kts 156°
2026-04-18 22:43 19.57115 -155.12387 2381 ft 91 kts 156°
2026-04-18 22:43 19.56546 -155.12124 2365 ft 88 kts 159°
2026-04-18 22:44 19.55985 -155.11901 2400 ft 84 kts 159°
2026-04-18 22:44 19.55484 -155.11722 2518 ft 68 kts 157°
2026-04-18 22:44 19.54955 -155.11448 2284 ft 99 kts 154°
2026-04-18 22:44 19.54412 -155.11306 2464 ft 73 kts 215°
2026-04-18 22:45 19.54196 -155.11877 2372 ft 91 kts 253°
2026-04-18 22:45 19.54020 -155.12518 2454 ft 88 kts 252°
2026-04-18 22:45 19.53839 -155.13136 2527 ft 88 kts 253°
2026-04-18 22:45 19.53667 -155.13762 2587 ft 89 kts 252°
2026-04-18 22:46 19.53467 -155.14382 2680 ft 88 kts 250°
2026-04-18 22:46 19.53254 -155.14992 2766 ft 88 kts 249°
2026-04-18 22:46 19.52971 -155.15516 2912 ft 78 kts 210°
2026-04-18 22:46 19.52542 -155.15339 2993 ft 77 kts 113°
2026-04-18 22:47 19.52445 -155.14710 2889 ft 98 kts 103°
2026-04-18 22:47 19.52290 -155.13960 2813 ft 107 kts 102°
2026-04-18 22:47 19.52437 -155.13282 2770 ft 97 kts 52°
2026-04-18 22:47 19.52927 -155.12826 2589 ft 89 kts 37°
2026-04-18 22:48 19.53394 -155.12468 2458 ft 75 kts 34°
2026-04-18 22:48 19.53786 -155.12174 2284 ft 66 kts 38°
2026-04-18 22:48 19.54118 -155.11834 2102 ft 70 kts 48°
2026-04-18 22:48 19.54393 -155.11401 1864 ft 71 kts 64°
2026-04-18 22:49 19.54601 -155.10897 1526 ft 78 kts 66°
2026-04-18 22:49 19.54809 -155.10419 1563 ft 79 kts 65°
2026-04-18 22:49 19.54984 -155.09853 1744 ft 82 kts 90°
2026-04-18 22:49 19.54825 -155.09212 1836 ft 97 kts 104°
2026-04-18 22:50 19.54651 -155.08470 1896 ft 108 kts 99°
2026-04-18 22:50 19.54636 -155.07695 1970 ft 104 kts 75°
2026-04-18 22:50 19.54884 -155.06944 1854 ft 113 kts 68°
2026-04-18 22:50 19.55479 -155.06680 1780 ft 114 kts 327°
2026-04-18 22:51 19.55565 -155.07354 1868 ft 87 kts 250°
2026-04-18 22:51 19.55426 -155.07929 1865 ft 76 kts 262°
2026-04-18 22:51 19.55343 -155.08483 1808 ft 77 kts 263°
2026-04-18 22:51 19.55258 -155.09023 1773 ft 70 kts 261°
2026-04-18 22:52 19.55140 -155.09527 1698 ft 69 kts 255°
2026-04-18 22:52 19.54994 -155.09966 1623 ft 61 kts 249°
2026-04-18 22:52 19.54826 -155.10380 1575 ft 63 kts 245°
2026-04-18 22:52 19.54663 -155.10763 1498 ft 51 kts 248°
2026-04-18 22:53 19.54618 -155.10889 1508 ft 5 kts 12°
2026-04-18 22:53 19.54655 -155.10807 1501 ft 15 kts 62°
2026-04-18 22:53 19.54679 -155.10766 1497 ft 0 kts 147°
2026-04-18 22:58 19.54676 -155.10765 1497 ft 0 kts 147°
2026-04-18 22:58 19.54671 -155.10761 1497 ft 0 kts 145°